| time (UTC) | temp F | wind direction | speed knots | gust knots | rain 1hr in | rain 24hr in | rain mn in | humidity % | barometer mb |
| 20260510190342 | 68 | 291 | 0.0 | 0.0 | 0.00 | 0.07 | 0.07 | 68 | 1018.1 |
| 20260510185838 | 67 | 282 | 2.6 | 3.5 | 0.00 | 0.07 | 0.07 | 67 | 1018.0 |
| 20260510185336 | 67 | 48 | 0.9 | 3.5 | 0.00 | 0.07 | 0.07 | 65 | 1018.0 |
| 20260510184833 | 66 | 49 | 0.9 | 3.5 | 0.00 | 0.07 | 0.07 | 70 | 1018.2 |
| 20260510184330 | 66 | 265 | 0.9 | 3.5 | 0.00 | 0.07 | 0.07 | 68 | 1018.2 |
| 20260510183824 | 65 | 75 | 0.0 | 2.6 | 0.00 | 0.07 | 0.07 | 73 | 1018.1 |
| 20260510183320 | 65 | 320 | 2.6 | 3.5 | 0.00 | 0.07 | 0.07 | 69 | 1018.0 |
| 20260510182811 | 65 | 320 | 2.6 | 3.5 | 0.00 | 0.07 | 0.07 | 66 | 1017.8 |
| 20260510182307 | 65 | 282 | 0.9 | 5.2 | 0.00 | 0.07 | 0.07 | 66 | 1017.9 |
| 20260510181803 | 65 | 305 | 2.6 | 3.5 | 0.00 | 0.07 | 0.07 | 71 | 1017.9 |
| 20260510181301 | 65 | 296 | 1.7 | 2.6 | 0.00 | 0.07 | 0.07 | 66 | 1017.8 |
| 20260510180757 | 64 | 61 | 1.7 | 3.5 | 0.00 | 0.07 | 0.07 | 70 | 1017.8 |
| 20260510180254 | 65 | 46 | 2.6 | 3.5 | 0.00 | 0.07 | 0.07 | 68 | 1017.6 |
| 20260510175751 | 64 | 60 | 1.7 | 2.6 | 0.00 | 0.07 | 0.07 | 72 | 1017.9 |
| 20260510175246 | 64 | 293 | 0.0 | 3.5 | 0.00 | 0.07 | 0.07 | 79 | 1017.8 |
| 20260510174743 | 64 | 21 | 1.7 | 3.5 | 0.00 | 0.07 | 0.07 | 75 | 1017.8 |
| 20260510174241 | 64 | 79 | 0.9 | 2.6 | 0.00 | 0.07 | 0.07 | 78 | 1017.7 |
| 20260510173737 | 63 | 62 | 1.7 | 2.6 | 0.00 | 0.07 | 0.07 | 79 | 1017.7 |
| 20260510173232 | 64 | 73 | 0.9 | 3.5 | 0.00 | 0.07 | 0.07 | 80 | 1017.7 |
| 20260510172728 | 64 | 25 | 0.9 | 2.6 | 0.00 | 0.07 | 0.07 | 82 | 1017.8 |
| 20260510172224 | 64 | 306 | 1.7 | 3.5 | 0.00 | 0.07 | 0.07 | 81 | 1017.9 |
| 20260510171721 | 65 | 319 | 0.9 | 1.7 | 0.00 | 0.07 | 0.07 | 81 | 1017.7 |
| 20260510171219 | 64 | 316 | 0.0 | 2.6 | 0.00 | 0.07 | 0.07 | 84 | 1017.8 |
| 20260510170716 | 64 | 336 | 0.9 | 2.6 | 0.00 | 0.07 | 0.07 | 84 | 1017.7 |
| 20260510170212 | 62 | 336 | 1.7 | 3.5 | 0.00 | 0.07 | 0.07 | 84 | 1017.9 |
| 20260510165708 | 62 | 17 | 1.7 | 1.7 | 0.00 | 0.07 | 0.07 | 85 | 1017.9 |
| 20260510165204 | 63 | 299 | 3.5 | 6.1 | 0.00 | 0.07 | 0.07 | 85 | 1017.9 |
| 20260510164701 | 63 | 78 | 1.7 | 3.5 | 0.00 | 0.07 | 0.07 | 85 | 1017.9 |
| 20260510164158 | 62 | 17 | 0.9 | 1.7 | 0.00 | 0.07 | 0.07 | 88 | 1017.9 |
| 20260510163653 | 62 | 44 | 2.6 | 5.2 | 0.00 | 0.07 | 0.07 | 87 | 1017.9 |
| 20260510163149 | 62 | 39 | 0.0 | 3.5 | 0.00 | 0.07 | 0.07 | 90 | 1018.0 |
| 20260510162649 | 61 | 54 | 0.9 | 2.6 | 0.00 | 0.07 | 0.07 | 89 | 1017.7 |
| 20260510162146 | 61 | 255 | 0.0 | 0.0 | 0.00 | 0.07 | 0.07 | 90 | 1017.7 |
| 20260510161642 | 62 | 255 | 0.0 | 0.0 | 0.00 | 0.07 | 0.07 | 88 | 1017.4 |
| 20260510161138 | 62 | 218 | 0.0 | 0.0 | 0.00 | 0.07 | 0.07 | 87 | 1017.4 |
| 20260510160636 | 62 | 218 | 0.0 | 0.0 | 0.00 | 0.07 | 0.07 | 87 | 1017.6 |
| 20260510160136 | 62 | 218 | 0.0 | 0.0 | 0.00 | 0.07 | 0.07 | 87 | 1017.3 |
| 20260510155632 | 62 | 215 | 0.0 | 0.0 | 0.00 | 0.07 | 0.07 | 87 | 1017.2 |
| 20260510155128 | 62 | 249 | 0.0 | 0.0 | 0.00 | 0.07 | 0.07 | 84 | 1017.1 |
| 20260510154624 | 62 | 249 | 0.0 | 0.0 | 0.00 | 0.07 | 0.07 | 87 | 1017.1 |
| 20260510154119 | 62 | 255 | 0.0 | 0.0 | 0.00 | 0.07 | 0.07 | 88 | 1017.2 |
| 20260510153615 | 61 | 255 | 0.0 | 0.0 | 0.00 | 0.07 | 0.07 | 90 | 1017.0 |
| 20260510153111 | 60 | 255 | 0.0 | 0.0 | 0.00 | 0.07 | 0.07 | 92 | 1017.0 |
| 20260510152608 | 60 | 255 | 0.0 | 0.0 | 0.00 | 0.07 | 0.07 | 94 | 1017.2 |
| 20260510152104 | 60 | 255 | 0.0 | 0.0 | 0.07 | 0.07 | 0.07 | 94 | 1017.1 |
| 20260510151602 | 59 | 255 | 0.0 | 0.0 | 0.07 | 0.07 | 0.07 | 95 | 1017.0 |
| 20260510151100 | 60 | 255 | 0.0 | 0.0 | 0.00 | 0.06 | 0.06 | 96 | 1016.9 |
| 20260510150600 | 59 | 255 | 0.0 | 0.0 | 0.05 | 0.06 | 0.06 | 96 | 1017.2 |
| 20260510150055 | 59 | 255 | 0.0 | 0.0 | 0.05 | 0.06 | 0.06 | 96 | 1016.8 |
| 20260510145552 | 59 | 255 | 0.0 | 0.0 | 0.00 | 0.05 | 0.05 | 95 | 1016.6 |
| 20260510145049 | 59 | 255 | 0.0 | 0.0 | 0.07 | 0.05 | 0.05 | 95 | 1016.6 |
| 20260510144545 | 59 | 255 | 0.0 | 0.0 | 0.05 | 0.04 | 0.04 | 95 | 1016.5 |
| 20260510144041 | 59 | 255 | 0.0 | 0.0 | 0.05 | 0.04 | 0.04 | 94 | 1016.4 |
| 20260510143537 | 59 | 255 | 0.0 | 0.0 | 0.07 | 0.03 | 0.03 | 94 | 1016.5 |
| 20260510143034 | 59 | 255 | 0.0 | 0.0 | 0.07 | 0.02 | 0.02 | 92 | 1016.6 |
| 20260510142530 | 59 | 255 | 0.0 | 0.0 | 0.12 | 0.02 | 0.02 | 91 | 1016.7 |
| 20260510142027 | 59 | 254 | 0.0 | 1.7 | 0.05 | 0.01 | 0.01 | 89 | 1016.7 |
| 20260510141524 | 60 | 333 | 2.6 | 5.2 | 0.00 | 0.00 | 0.00 | 87 | 1017.1 |
| 20260510141021 | 62 | 265 | 1.7 | 2.6 | 0.00 | 0.00 | 0.00 | 82 | 1016.4 |
| 20260510140517 | 62 | 230 | 0.0 | 0.9 | 0.00 | 0.00 | 0.00 | 81 | 1016.3 |
| 20260510140017 | 62 | 230 | 0.0 | 1.7 | 0.00 | 0.00 | 0.00 | 79 | 1016.2 |
| 20260510135513 | 63 | 230 | 0.9 | 1.7 | 0.00 | 0.00 | 0.00 | 78 | 1016.3 |
| 20260510135010 | 64 | 230 | 1.7 | 2.6 | 0.00 | 0.00 | 0.00 | 78 | 1016.1 |
| 20260510134507 | 64 | 168 | 0.9 | 1.7 | 0.00 | 0.00 | 0.00 | 79 | 1016.2 |
| 20260510134003 | 65 | 259 | 0.0 | 0.9 | 0.00 | 0.00 | 0.00 | 78 | 1016.1 |
| 20260510133459 | 63 | 249 | 1.7 | 3.5 | 0.00 | 0.00 | 0.00 | 82 | 1016.0 |
| 20260510132955 | 63 | 285 | 0.0 | 2.6 | 0.00 | 0.00 | 0.00 | 81 | 1016.1 |
| 20260510132453 | 62 | 306 | 2.6 | 2.6 | 0.00 | 0.00 | 0.00 | 81 | 1016.2 |
| 20260510131949 | 62 | 259 | 1.7 | 2.6 | 0.00 | 0.00 | 0.00 | 82 | 1016.0 |
| 20260510131447 | 61 | 238 | 0.0 | 3.5 | 0.00 | 0.00 | 0.00 | 83 | 1015.8 |
| 20260510130944 | 61 | 240 | 1.7 | 2.6 | 0.00 | 0.00 | 0.00 | 83 | 1016.0 |
| 20260510130440 | 61 | 234 | 1.7 | 1.7 | 0.00 | 0.00 | 0.00 | 84 | 1015.9 |
| 20260510125938 | 60 | 234 | 0.9 | 0.9 | 0.00 | 0.00 | 0.00 | 85 | 1015.9 |
| 20260510125434 | 60 | 234 | 0.0 | 0.0 | 0.00 | 0.00 | 0.00 | 85 | 1015.7 |
| 20260510124931 | 60 | 234 | 0.0 | 0.9 | 0.00 | 0.00 | 0.00 | 85 | 1015.7 |
| 20260510124427 | 60 | 234 | 0.9 | 0.9 | 0.00 | 0.00 | 0.00 | 84 | 1015.6 |
| 20260510123924 | 60 | 234 | 0.9 | 1.7 | 0.00 | 0.00 | 0.00 | 84 | 1015.7 |
| 20260510123419 | 60 | 234 | 0.9 | 0.9 | 0.00 | 0.00 | 0.00 | 86 | 1015.8 |
| 20260510122916 | 59 | 234 | 0.9 | 1.7 | 0.00 | 0.00 | 0.00 | 85 | 1015.8 |
| 20260510122410 | 60 | 234 | 1.7 | 1.7 | 0.00 | 0.00 | 0.00 | 84 | 1015.6 |
| 20260510121907 | 60 | 234 | 0.9 | 0.9 | 0.00 | 0.00 | 0.00 | 84 | 1015.3 |
| 20260510121405 | 60 | 240 | 0.0 | 0.0 | 0.00 | 0.00 | 0.00 | 84 | 1015.4 |
| 20260510120902 | 59 | 240 | 0.0 | 0.0 | 0.00 | 0.00 | 0.00 | 85 | 1015.6 |
| 20260510120359 | 59 | 240 | 0.0 | 0.9 | 0.00 | 0.00 | 0.00 | 85 | 1015.6 |
| 20260510115855 | 58 | 239 | 0.9 | 1.7 | 0.00 | 0.00 | 0.00 | 85 | 1015.5 |
| 20260510115352 | 58 | 239 | 1.7 | 1.7 | 0.00 | 0.00 | 0.00 | 85 | 1015.3 |
| 20260510114847 | 58 | 265 | 0.9 | 1.7 | 0.00 | 0.00 | 0.00 | 86 | 1015.3 |
| 20260510114345 | 58 | 232 | 0.9 | 1.7 | 0.00 | 0.00 | 0.00 | 85 | 1015.1 |
| 20260510113845 | 58 | 250 | 0.0 | 0.0 | 0.00 | 0.00 | 0.00 | 86 | 1015.2 |
| 20260510113341 | 58 | 251 | 0.0 | 1.7 | 0.00 | 0.00 | 0.00 | 86 | 1014.9 |
| 20260510112838 | 58 | 181 | 2.6 | 3.5 | 0.00 | 0.00 | 0.00 | 85 | 1014.7 |
| 20260510112336 | 58 | 196 | 0.9 | 1.7 | 0.00 | 0.00 | 0.00 | 86 | 1014.2 |
| 20260510111831 | 58 | 196 | 1.7 | 5.2 | 0.00 | 0.00 | 0.00 | 86 | 1014.3 |
| 20260510111328 | 57 | 234 | 0.0 | 0.0 | 0.00 | 0.00 | 0.00 | 87 | 1014.3 |
| 20260510110828 | 57 | 210 | 0.9 | 2.6 | 0.00 | 0.00 | 0.00 | 86 | 1014.1 |
| 20260510110326 | 57 | 230 | 1.7 | 2.6 | 0.00 | 0.00 | 0.00 | 87 | 1014.1 |
| 20260510105821 | 57 | 250 | 0.9 | 3.5 | 0.00 | 0.00 | 0.00 | 87 | 1014.0 |
| 20260510105316 | 57 | 224 | 0.9 | 1.7 | 0.00 | 0.00 | 0.00 | 87 | 1014.0 |
| 20260510104813 | 56 | 232 | 1.7 | 1.7 | 0.00 | 0.00 | 0.00 | 88 | 1014.0 |
| 20260510104310 | 56 | 231 | 0.9 | 1.7 | 0.00 | 0.00 | 0.00 | 89 | 1013.9 |
| 20260510103807 | 56 | 233 | 0.9 | 1.7 | 0.00 | 0.00 | 0.00 | 89 | 1014.0 |
| 20260510103303 | 56 | 233 | 0.9 | 2.6 | 0.00 | 0.00 | 0.00 | 89 | 1013.9 |
| 20260510102803 | 56 | 224 | 0.0 | 0.0 | 0.00 | 0.00 | 0.00 | 89 | 1013.6 |
| 20260510102259 | 56 | 224 | 0.0 | 0.0 | 0.00 | 0.00 | 0.00 | 89 | 1013.6 |
| 20260510101756 | 56 | 223 | 0.0 | 0.0 | 0.00 | 0.00 | 0.00 | 89 | 1013.5 |
| 20260510101255 | 56 | 224 | 0.0 | 1.7 | 0.00 | 0.00 | 0.00 | 88 | 1013.3 |
| 20260510100750 | 56 | 224 | 1.7 | 2.6 | 0.00 | 0.00 | 0.00 | 87 | 1013.2 |
| 20260510100249 | 56 | 234 | 1.7 | 1.7 | 0.00 | 0.00 | 0.00 | 88 | 1013.0 |
| 20260510095749 | 56 | 250 | 0.9 | 1.7 | 0.00 | 0.00 | 0.00 | 88 | 1013.1 |
| 20260510095245 | 56 | 224 | 0.0 | 1.7 | 0.00 | 0.00 | 0.00 | 88 | 1013.1 |
| 20260510094744 | 56 | 224 | 2.6 | 3.5 | 0.00 | 0.00 | 0.00 | 87 | 1012.9 |
| 20260510094240 | 56 | 240 | 1.7 | 2.6 | 0.00 | 0.00 | 0.00 | 87 | 1012.9 |
| 20260510093736 | 57 | 243 | 1.7 | 3.5 | 0.00 | 0.00 | 0.00 | 87 | 1012.9 |
| 20260510093233 | 57 | 234 | 1.7 | 2.6 | 0.00 | 0.00 | 0.00 | 87 | 1012.8 |
| 20260510092729 | 57 | 242 | 1.7 | 2.6 | 0.00 | 0.00 | 0.00 | 87 | 1012.7 |
| 20260510092225 | 57 | 201 | 2.6 | 2.6 | 0.00 | 0.00 | 0.00 | 87 | 1012.7 |
| 20260510091721 | 57 | 240 | 2.6 | 3.5 | 0.00 | 0.00 | 0.00 | 86 | 1012.6 |
| 20260510091218 | 57 | 239 | 1.7 | 2.6 | 0.00 | 0.00 | 0.00 | 86 | 1012.6 |
| 20260510090714 | 57 | 89 | 1.7 | 3.5 | 0.00 | 0.00 | 0.00 | 86 | 1012.5 |
| 20260510090211 | 57 | 236 | 3.5 | 3.5 | 0.00 | 0.00 | 0.00 | 87 | 1012.5 |
| 20260510085706 | 57 | 234 | 0.9 | 1.7 | 0.00 | 0.00 | 0.00 | 87 | 1012.7 |
| 20260510085202 | 57 | 238 | 1.7 | 2.6 | 0.00 | 0.00 | 0.00 | 87 | 1012.6 |
| 20260510084658 | 57 | 242 | 2.6 | 2.6 | 0.00 | 0.00 | 0.00 | 87 | 1012.7 |
| 20260510084155 | 57 | 227 | 0.9 | 2.6 | 0.00 | 0.00 | 0.00 | 86 | 1012.6 |
| 20260510083652 | 57 | 233 | 1.7 | 3.5 | 0.00 | 0.00 | 0.00 | 86 | 1012.6 |
| 20260510083148 | 58 | 236 | 2.6 | 5.2 | 0.00 | 0.00 | 0.00 | 86 | 1012.6 |
| 20260510082644 | 57 | 229 | 2.6 | 3.5 | 0.00 | 0.00 | 0.00 | 86 | 1012.7 |
| 20260510082140 | 57 | 235 | 1.7 | 2.6 | 0.00 | 0.00 | 0.00 | 86 | 1012.9 |
| 20260510081635 | 57 | 244 | 1.7 | 2.6 | 0.00 | 0.00 | 0.00 | 86 | 1012.6 |
| 20260510081131 | 57 | 238 | 2.6 | 3.5 | 0.00 | 0.00 | 0.00 | 86 | 1012.6 |
| 20260510080630 | 57 | 235 | 1.7 | 2.6 | 0.00 | 0.00 | 0.00 | 85 | 1012.6 |
| 20260510080127 | 57 | 251 | 1.7 | 2.6 | 0.00 | 0.00 | 0.00 | 86 | 1012.6 |
| 20260510075625 | 58 | 251 | 1.7 | 2.6 | 0.00 | 0.00 | 0.00 | 85 | 1012.3 |
| 20260510075122 | 58 | 242 | 3.5 | 5.2 | 0.00 | 0.00 | 0.00 | 85 | 1012.3 |
| 20260510074619 | 58 | 248 | 2.6 | 3.5 | 0.00 | 0.00 | 0.00 | 85 | 1012.4 |
| 20260510074114 | 58 | 212 | 1.7 | 3.5 | 0.00 | 0.00 | 0.00 | 84 | 1012.2 |
| 20260510073610 | 58 | 242 | 2.6 | 3.5 | 0.00 | 0.00 | 0.00 | 84 | 1012.3 |
| 20260510073108 | 58 | 231 | 2.6 | 5.2 | 0.00 | 0.00 | 0.00 | 83 | 1012.3 |
| 20260510072604 | 58 | 237 | 1.7 | 2.6 | 0.00 | 0.00 | 0.00 | 83 | 1012.2 |
| 20260510072101 | 58 | 233 | 1.7 | 2.6 | 0.00 | 0.00 | 0.00 | 84 | 1012.3 |
| 20260510071557 | 58 | 243 | 1.7 | 5.2 | 0.00 | 0.00 | 0.00 | 84 | 1012.3 |
| 20260510071055 | 58 | 246 | 2.6 | 2.6 | 0.00 | 0.00 | 0.00 | 84 | 1012.5 |
| 20260510070551 | 59 | 245 | 1.7 | 5.2 | 0.00 | 0.00 | 0.00 | 82 | 1012.4 |
| 20260510070049 | 59 | 248 | 1.7 | 5.2 | 0.00 | 0.00 | 0.00 | 82 | 1012.3 |
| 20260510065545 | 59 | 257 | 1.7 | 3.5 | 0.00 | 0.00 | 0.00 | 82 | 1012.1 |
| 20260510065041 | 59 | 235 | 2.6 | 5.2 | 0.00 | 0.00 | 0.00 | 82 | 1012.4 |
| 20260510064537 | 59 | 249 | 2.6 | 5.2 | 0.00 | 0.00 | 0.00 | 82 | 1012.3 |
| 20260510064034 | 59 | 223 | 1.7 | 3.5 | 0.00 | 0.00 | 0.00 | 82 | 1012.2 |
| 20260510063531 | 59 | 208 | 2.6 | 2.6 | 0.00 | 0.00 | 0.00 | 82 | 1012.2 |
| 20260510063028 | 59 | 198 | 2.6 | 3.5 | 0.00 | 0.00 | 0.00 | 82 | 1012.3 |
| 20260510062524 | 60 | 248 | 1.7 | 3.5 | 0.00 | 0.00 | 0.00 | 81 | 1012.3 |
| 20260510062019 | 60 | 233 | 3.5 | 6.1 | 0.00 | 0.00 | 0.00 | 80 | 1012.4 |
| 20260510061516 | 60 | 217 | 2.6 | 6.1 | 0.00 | 0.00 | 0.00 | 80 | 1012.3 |
| 20260510061013 | 60 | 248 | 1.7 | 5.2 | 0.00 | 0.00 | 0.00 | 80 | 1012.2 |
| 20260510060509 | 60 | 253 | 2.6 | 3.5 | 0.00 | 0.00 | 0.00 | 80 | 1012.2 |
| 20260510060006 | 60 | 246 | 2.6 | 3.5 | 0.00 | 0.00 | 0.00 | 80 | 1012.2 |
| 20260510055501 | 60 | 201 | 3.5 | 5.2 | 0.00 | 0.00 | 0.00 | 80 | 1012.4 |
| 20260510055000 | 60 | 233 | 5.2 | 7.0 | 0.00 | 0.00 | 0.00 | 80 | 1012.3 |
| 20260510054455 | 60 | 244 | 1.7 | 6.1 | 0.00 | 0.00 | 0.00 | 80 | 1012.3 |
| 20260510053950 | 61 | 249 | 3.5 | 6.1 | 0.00 | 0.00 | 0.00 | 80 | 1012.3 |
| 20260510053445 | 60 | 262 | 1.7 | 3.5 | 0.00 | 0.00 | 0.00 | 80 | 1012.6 |
| 20260510052942 | 61 | 243 | 2.6 | 6.1 | 0.00 | 0.00 | 0.00 | 79 | 1012.4 |
| 20260510052438 | 61 | 232 | 2.6 | 6.1 | 0.00 | 0.00 | 0.00 | 79 | 1012.5 |
| 20260510051934 | 61 | 227 | 4.3 | 6.1 | 0.00 | 0.00 | 0.00 | 79 | 1012.4 |
| 20260510051431 | 61 | 259 | 2.6 | 5.2 | 0.00 | 0.00 | 0.00 | 79 | 1012.4 |
| 20260510050927 | 61 | 201 | 2.6 | 7.0 | 0.00 | 0.00 | 0.00 | 79 | 1012.5 |
| 20260510050424 | 61 | 253 | 1.7 | 5.2 | 0.00 | 0.00 | 0.00 | 79 | 1012.4 |
| 20260510045921 | 61 | 253 | 3.5 | 7.0 | 0.00 | 0.00 | 0.00 | 79 | 1012.7 |
| 20260510045418 | 61 | 223 | 3.5 | 6.1 | 0.00 | 0.00 | 0.00 | 79 | 1012.6 |
| 20260510044915 | 61 | 253 | 4.3 | 7.8 | 0.00 | 0.00 | 0.00 | 78 | 1012.7 |
| 20260510044412 | 61 | 189 | 3.5 | 5.2 | 0.00 | 0.00 | 0.00 | 79 | 1012.6 |
| 20260510043909 | 61 | 217 | 2.6 | 6.1 | 0.00 | 0.00 | 0.00 | 79 | 1012.6 |
| 20260510043404 | 61 | 238 | 3.5 | 7.8 | 0.00 | 0.00 | 0.00 | 79 | 1012.5 |
| 20260510042903 | 61 | 206 | 2.6 | 6.1 | 0.00 | 0.00 | 0.00 | 79 | 1012.5 |
| 20260510042358 | 61 | 247 | 4.3 | 6.1 | 0.00 | 0.00 | 0.00 | 79 | 1012.5 |
| 20260510041854 | 61 | 259 | 4.3 | 6.1 | 0.00 | 0.00 | 0.00 | 79 | 1012.6 |
| 20260510041352 | 62 | 229 | 1.7 | 7.0 | 0.00 | 0.00 | 0.00 | 79 | 1012.4 |
| 20260510040849 | 61 | 249 | 3.5 | 6.1 | 0.00 | 0.00 | 0.00 | 79 | 1012.5 |
| 20260510040346 | 61 | 236 | 2.6 | 8.7 | 0.00 | 0.00 | 0.00 | 78 | 1012.5 |
| 20260510035841 | 61 | 236 | 4.3 | 5.2 | 0.00 | 0.13 | 0.13 | 79 | 1012.5 |
| 20260510035337 | 61 | 233 | 4.3 | 6.1 | 0.00 | 0.13 | 0.13 | 78 | 1012.5 |
| 20260510034833 | 61 | 240 | 3.5 | 7.0 | 0.00 | 0.13 | 0.13 | 78 | 1012.3 |
| 20260510034331 | 61 | 257 | 4.3 | 6.1 | 0.00 | 0.13 | 0.13 | 79 | 1012.5 |
| 20260510033827 | 61 | 179 | 3.5 | 6.1 | 0.00 | 0.13 | 0.13 | 79 | 1012.5 |
| 20260510033324 | 61 | 240 | 4.3 | 6.1 | 0.00 | 0.13 | 0.13 | 79 | 1012.4 |
| 20260510032821 | 61 | 158 | 2.6 | 6.1 | 0.00 | 0.13 | 0.13 | 79 | 1012.5 |
| 20260510032317 | 61 | 235 | 3.5 | 6.1 | 0.00 | 0.13 | 0.13 | 79 | 1012.3 |
| 20260510031813 | 61 | 245 | 2.6 | 5.2 | 0.00 | 0.13 | 0.13 | 78 | 1012.2 |
| 20260510031309 | 61 | 224 | 2.6 | 6.1 | 0.00 | 0.13 | 0.13 | 78 | 1012.2 |
| 20260510030809 | 61 | 203 | 3.5 | 6.1 | 0.00 | 0.13 | 0.13 | 78 | 1012.2 |
| 20260510030306 | 61 | 214 | 1.7 | 5.2 | 0.00 | 0.13 | 0.13 | 78 | 1012.2 |
| 20260510025803 | 61 | 248 | 1.7 | 3.5 | 0.00 | 0.13 | 0.13 | 78 | 1012.0 |
| 20260510025300 | 61 | 217 | 2.6 | 3.5 | 0.00 | 0.13 | 0.13 | 77 | 1012.2 |
| 20260510024756 | 61 | 233 | 2.6 | 3.5 | 0.00 | 0.13 | 0.13 | 77 | 1012.2 |
| 20260510024254 | 61 | 246 | 2.6 | 5.2 | 0.00 | 0.13 | 0.13 | 78 | 1011.9 |
| 20260510023750 | 61 | 264 | 2.6 | 5.2 | 0.00 | 0.13 | 0.13 | 77 | 1011.9 |
| 20260510023247 | 61 | 238 | 0.9 | 3.5 | 0.00 | 0.13 | 0.13 | 77 | 1012.0 |
| 20260510022743 | 61 | 233 | 1.7 | 2.6 | 0.00 | 0.13 | 0.13 | 77 | 1011.9 |
| 20260510022237 | 61 | 237 | 1.7 | 1.7 | 0.00 | 0.13 | 0.13 | 77 | 1012.0 |
| 20260510021726 | 62 | 228 | 1.7 | 3.5 | 0.00 | 0.13 | 0.13 | 76 | 1012.0 |
| 20260510021225 | 62 | 256 | 3.5 | 5.2 | 0.00 | 0.13 | 0.13 | 76 | 1011.8 |
| 20260510020725 | 62 | 234 | 0.9 | 2.6 | 0.00 | 0.13 | 0.13 | 76 | 1011.8 |
| 20260510020220 | 62 | 245 | 2.6 | 3.5 | 0.00 | 0.13 | 0.13 | 75 | 1011.7 |
| 20260510015716 | 62 | 239 | 1.7 | 3.5 | 0.00 | 0.13 | 0.13 | 75 | 1011.7 |
| 20260510015213 | 62 | 243 | 1.7 | 5.2 | 0.00 | 0.13 | 0.13 | 75 | 1011.5 |
| 20260510014708 | 62 | 225 | 2.6 | 5.2 | 0.00 | 0.13 | 0.13 | 74 | 1011.4 |
| 20260510014205 | 63 | 245 | 0.9 | 2.6 | 0.00 | 0.13 | 0.13 | 74 | 1011.3 |
| 20260510013700 | 63 | 250 | 2.6 | 3.5 | 0.00 | 0.13 | 0.13 | 74 | 1011.2 |
| 20260510013156 | 63 | 237 | 1.7 | 3.5 | 0.00 | 0.13 | 0.13 | 74 | 1011.3 |
| 20260510012656 | 63 | 226 | 0.9 | 2.6 | 0.00 | 0.13 | 0.13 | 73 | 1011.2 |
| 20260510012151 | 63 | 233 | 1.7 | 2.6 | 0.00 | 0.13 | 0.13 | 73 | 1011.0 |
| 20260510011646 | 63 | 197 | 1.7 | 2.6 | 0.00 | 0.13 | 0.13 | 73 | 1010.9 |
| 20260510011142 | 63 | 244 | 1.7 | 3.5 | 0.00 | 0.13 | 0.13 | 73 | 1011.0 |
| 20260510010638 | 63 | 230 | 1.7 | 5.2 | 0.00 | 0.13 | 0.13 | 73 | 1011.0 |
| 20260510010136 | 63 | 239 | 0.9 | 1.7 | 0.00 | 0.13 | 0.13 | 73 | 1010.9 |
| 20260510005632 | 63 | 229 | 0.9 | 2.6 | 0.00 | 0.13 | 0.13 | 72 | 1010.7 |
| 20260510005129 | 63 | 237 | 1.7 | 2.6 | 0.00 | 0.13 | 0.13 | 72 | 1010.7 |
| 20260510004627 | 64 | 234 | 1.7 | 1.7 | 0.00 | 0.13 | 0.13 | 72 | 1010.8 |
| 20260510004125 | 64 | 235 | 0.0 | 1.7 | 0.00 | 0.13 | 0.13 | 71 | 1010.5 |
| 20260510003622 | 64 | 234 | 1.7 | 2.6 | 0.00 | 0.13 | 0.13 | 70 | 1010.5 |
| 20260510003117 | 64 | 243 | 0.9 | 1.7 | 0.00 | 0.13 | 0.13 | 70 | 1010.7 |
| 20260510002612 | 65 | 204 | 1.7 | 2.6 | 0.00 | 0.13 | 0.13 | 69 | 1010.3 |
| 20260510002110 | 65 | 140 | 1.7 | 3.5 | 0.00 | 0.13 | 0.13 | 68 | 1010.4 |
| 20260510001607 | 65 | 229 | 2.6 | 2.6 | 0.00 | 0.13 | 0.13 | 68 | 1010.2 |
| 20260510001106 | 66 | 266 | 1.7 | 2.6 | 0.00 | 0.13 | 0.13 | 67 | 1010.2 |
| 20260510000605 | 66 | 193 | 0.9 | 1.7 | 0.00 | 0.13 | 0.13 | 67 | 1010.3 |
| 20260509235559 | 67 | 162 | 1.7 | 3.5 | 0.00 | 0.13 | 0.13 | 65 | 1010.1 |
| 20260509235056 | 67 | 250 | 1.7 | 3.5 | 0.00 | 0.13 | 0.13 | 65 | 1010.1 |
| 20260509234552 | 67 | 260 | 1.7 | 2.6 | 0.00 | 0.13 | 0.13 | 65 | 1010.3 |
| 20260509234050 | 67 | 239 | 4.3 | 6.1 | 0.00 | 0.13 | 0.13 | 64 | 1010.2 |
| 20260509233547 | 67 | 234 | 5.2 | 7.0 | 0.00 | 0.13 | 0.13 | 63 | 1010.2 |
| 20260509233044 | 67 | 238 | 2.6 | 5.2 | 0.00 | 0.13 | 0.13 | 63 | 1010.2 |
| 20260509232541 | 68 | 86 | 4.3 | 9.6 | 0.00 | 0.13 | 0.13 | 63 | 1010.2 |
| 20260509232038 | 68 | 233 | 3.5 | 5.2 | 0.00 | 0.13 | 0.13 | 62 | 1009.8 |
| 20260509231534 | 69 | 216 | 2.6 | 5.2 | 0.00 | 0.13 | 0.13 | 62 | 1010.0 |
| 20260509231032 | 69 | 248 | 4.3 | 6.1 | 0.00 | 0.13 | 0.13 | 61 | 1010.1 |
| 20260509230528 | 69 | 221 | 3.5 | 5.2 | 0.00 | 0.13 | 0.13 | 61 | 1009.7 |
| 20260509230026 | 69 | 233 | 3.5 | 5.2 | 0.00 | 0.13 | 0.13 | 60 | 1010.1 |
| 20260509225521 | 69 | 244 | 7.0 | 7.8 | 0.00 | 0.13 | 0.13 | 59 | 1010.1 |
| 20260509225017 | 69 | 250 | 1.7 | 7.0 | 0.00 | 0.13 | 0.13 | 61 | 1009.8 |
| 20260509224512 | 69 | 256 | 4.3 | 7.8 | 0.00 | 0.13 | 0.13 | 60 | 1010.1 |
| 20260509224009 | 69 | 242 | 6.1 | 8.7 | 0.00 | 0.13 | 0.13 | 59 | 1010.1 |
| 20260509223506 | 70 | 260 | 4.3 | 7.8 | 0.00 | 0.13 | 0.13 | 60 | 1010.1 |
| 20260509223005 | 69 | 253 | 4.3 | 7.8 | 0.00 | 0.13 | 0.13 | 60 | 1010.1 |
| 20260509222459 | 70 | 232 | 5.2 | 7.8 | 0.00 | 0.13 | 0.13 | 60 | 1010.2 |
| 20260509221955 | 70 | 231 | 3.5 | 7.0 | 0.00 | 0.13 | 0.13 | 59 | 1010.3 |
| 20260509221451 | 70 | 272 | 3.5 | 3.5 | 0.00 | 0.13 | 0.13 | 60 | 1010.2 |
| 20260509220948 | 70 | 251 | 2.6 | 7.0 | 0.00 | 0.13 | 0.13 | 59 | 1010.4 |
| 20260509220444 | 69 | 242 | 4.3 | 7.8 | 0.00 | 0.13 | 0.13 | 61 | 1010.3 |
| 20260509215940 | 71 | 235 | 3.5 | 5.2 | 0.00 | 0.13 | 0.13 | 58 | 1010.4 |
| 20260509215435 | 69 | 234 | 1.7 | 5.2 | 0.00 | 0.13 | 0.13 | 62 | 1010.5 |
| 20260509214933 | 69 | 255 | 5.2 | 7.8 | 0.00 | 0.13 | 0.13 | 59 | 1010.4 |
| 20260509214430 | 69 | 248 | 2.6 | 6.1 | 0.00 | 0.13 | 0.13 | 64 | 1010.6 |
| 20260509213927 | 70 | 215 | 3.5 | 5.2 | 0.00 | 0.13 | 0.13 | 59 | 1010.4 |
| 20260509213422 | 70 | 242 | 3.5 | 7.8 | 0.00 | 0.13 | 0.13 | 60 | 1010.5 |
| 20260509212920 | 71 | 290 | 2.6 | 5.2 | 0.00 | 0.13 | 0.13 | 62 | 1010.4 |
| 20260509212418 | 70 | 277 | 5.2 | 7.0 | 0.00 | 0.13 | 0.13 | 61 | 1010.4 |
| 20260509211914 | 68 | 220 | 0.0 | 3.5 | 0.00 | 0.13 | 0.13 | 65 | 1010.5 |
| 20260509211410 | 69 | 196 | 1.7 | 5.2 | 0.00 | 0.13 | 0.13 | 62 | 1010.4 |
| 20260509210906 | 68 | 246 | 1.7 | 3.5 | 0.00 | 0.13 | 0.13 | 63 | 1010.6 |
| 20260509210404 | 69 | 23 | 1.7 | 2.6 | 0.00 | 0.13 | 0.13 | 62 | 1010.5 |
| 20260509205904 | 69 | 239 | 1.7 | 5.2 | 0.00 | 0.13 | 0.13 | 63 | 1010.5 |
| 20260509205403 | 67 | 250 | 3.5 | 8.7 | 0.00 | 0.13 | 0.13 | 65 | 1010.6 |
| 20260509204900 | 67 | 240 | 1.7 | 3.5 | 0.00 | 0.13 | 0.13 | 66 | 1010.5 |
| 20260509204356 | 68 | 223 | 3.5 | 6.1 | 0.00 | 0.13 | 0.13 | 63 | 1010.6 |
| 20260509203853 | 69 | 114 | 1.7 | 5.2 | 0.00 | 0.13 | 0.13 | 61 | 1010.6 |
| 20260509203349 | 67 | 272 | 2.6 | 6.1 | 0.00 | 0.13 | 0.13 | 63 | 1010.5 |
| 20260509202846 | 69 | 158 | 4.3 | 7.0 | 0.00 | 0.13 | 0.13 | 62 | 1010.5 |
| 20260509202342 | 70 | 213 | 5.2 | 7.0 | 0.00 | 0.13 | 0.13 | 62 | 1010.8 |
| 20260509201837 | 69 | 246 | 4.3 | 6.1 | 0.00 | 0.13 | 0.13 | 66 | 1010.5 |
| 20260509201333 | 69 | 247 | 3.5 | 7.0 | 0.00 | 0.13 | 0.13 | 62 | 1010.6 |
| 20260509200830 | 69 | 282 | 2.6 | 6.1 | 0.00 | 0.13 | 0.13 | 65 | 1010.7 |
| 20260509200325 | 68 | 244 | 1.7 | 3.5 | 0.00 | 0.13 | 0.13 | 66 | 1010.8 |
| 20260509195822 | 67 | 209 | 4.3 | 5.2 | 0.00 | 0.13 | 0.13 | 67 | 1011.0 |
| 20260509195322 | 66 | 286 | 3.5 | 3.5 | 0.00 | 0.13 | 0.13 | 64 | 1011.1 |
| 20260509194822 | 66 | 240 | 2.6 | 5.2 | 0.00 | 0.13 | 0.13 | 65 | 1011.2 |
| 20260509194318 | 66 | 245 | 2.6 | 5.2 | 0.00 | 0.13 | 0.13 | 68 | 1011.2 |
| 20260509193815 | 67 | 276 | 3.5 | 5.2 | 0.00 | 0.13 | 0.13 | 63 | 1011.2 |
| 20260509193315 | 67 | 220 | 3.5 | 5.2 | 0.00 | 0.13 | 0.13 | 63 | 1011.2 |
| 20260509192811 | 67 | 231 | 0.9 | 7.0 | 0.00 | 0.13 | 0.13 | 65 | 1011.3 |
| 20260509192307 | 67 | 276 | 1.7 | 5.2 | 0.00 | 0.13 | 0.13 | 67 | 1011.3 |
| 20260509191802 | 66 | 271 | 2.6 | 7.0 | 0.00 | 0.13 | 0.13 | 69 | 1011.3 |
| 20260509191259 | 68 | 229 | 2.6 | 3.5 | 0.00 | 0.13 | 0.13 | 67 | 1011.3 |